When you browse on this site, cookies collect data to enhance your experience and personalize the content and advertising you see.
Visit our Privacy Policy to learn more. By continuing to use the site, you agree to this use of cookies and data.
  • In Sweden
  • List of Countries
  • For 7 days
  • Water Temperature
  • Satellite Maps
  • Weather Map
  • Weather Widgets
  • user-avatar
    Login

    Hourly Weather Florkowizna

    Today, 27 May, Monday

    Time Temperature Precipitation Wind Pressure Humidity
    00:00 +13°C° 0 mm 3 mps 745 mmHg 85%
    01:00 +12°C° 0 mm 3 mps 745 mmHg 87%
    02:00 +12°C° 0 mm 3 mps 745 mmHg 88%
    03:00 +12°C° 0 mm 3 mps 745 mmHg 89%
    04:00 +12°C° 0 mm 3 mps 745 mmHg 90%
    05:00 +14°C° 0 mm 4 mps 745 mmHg 86%
    06:00 +15°C° 0 mm 4 mps 745 mmHg 81%
    07:00 +17°C° 0 mm 5 mps 744 mmHg 76%
    08:00 +20°C° 0 mm 5 mps 744 mmHg 70%
    09:00 +21°C° 0 mm 6 mps 745 mmHg 64%
    10:00 +22°C° 0 mm 6 mps 745 mmHg 58%
    11:00 +23°C° 0 mm 6 mps 744 mmHg 56%
    12:00 +23°C° 0 mm 6 mps 744 mmHg 54%
    13:00 +24°C° 0 mm 6 mps 744 mmHg 52%
    14:00 +25°C° 0 mm 5 mps 744 mmHg 53%
    15:00 +25°C° 0 mm 5 mps 744 mmHg 54%
    16:00 +25°C° 0 mm 4 mps 744 mmHg 54%
    17:00 +24°C° 0 mm 3 mps 743 mmHg 61%
    18:00 +21°C° 0 mm 2 mps 743 mmHg 68%
    19:00 +21°C° 0 mm 1 mps 743 mmHg 74%
    20:00 +20°C° 0 mm 1 mps 743 mmHg 77%
    21:00 +19°C° 0 mm 1 mps 743 mmHg 81%
    22:00 +17°C° 0 mm 2 mps 743 mmHg 84%
    23:00 +17°C° 0 mm 2 mps 743 mmHg 85%

    Tomorrow, 28 May, Tuesday

    Time Temperature Precipitation Wind Pressure Humidity
    00:00 +17°C° 0 mm 2 mps 742 mmHg 86%
    01:00 +17°C° 0 mm 2 mps 742 mmHg 86%
    02:00 +16°C° 1.4 mm 2 mps 742 mmHg 90%
    03:00 +16°C° 1.4 mm 2 mps 741 mmHg 93%
    04:00 +16°C° 1.4 mm 2 mps 741 mmHg 96%
    05:00 +17°C° 2.2 mm 3 mps 740 mmHg 94%
    06:00 +17°C° 2.2 mm 4 mps 740 mmHg 92%
    07:00 +16°C° 2.2 mm 6 mps 740 mmHg 90%
    08:00 +17°C° 0.1 mm 6 mps 740 mmHg 87%
    09:00 +17°C° 0.1 mm 6 mps 740 mmHg 84%
    10:00 +19°C° 0.1 mm 6 mps 740 mmHg 81%
    11:00 +19°C° 0.3 mm 5 mps 740 mmHg 82%
    12:00 +19°C° 0.3 mm 4 mps 740 mmHg 83%
    13:00 +18°C° 0.3 mm 4 mps 740 mmHg 84%
    14:00 +18°C° 0.2 mm 4 mps 740 mmHg 84%
    15:00 +18°C° 0.2 mm 4 mps 741 mmHg 85%
    16:00 +17°C° 0.2 mm 5 mps 741 mmHg 86%
    17:00 +15°C° 0.2 mm 5 mps 741 mmHg 87%
    18:00 +14°C° 0.2 mm 6 mps 742 mmHg 89%
    19:00 +13°C° 0.2 mm 6 mps 742 mmHg 91%
    20:00 +11°C° 0.2 mm 6 mps 743 mmHg 92%
    21:00 +10°C° 0.2 mm 6 mps 743 mmHg 92%
    22:00 +10°C° 0.2 mm 5 mps 744 mmHg 93%
    23:00 +9°C° 0.1 mm 5 mps 744 mmHg 92%

    Day after tomorrow, 29 May, Wednesday

    Time Temperature Precipitation Wind Pressure Humidity
    00:00 +9°C° 0.1 mm 5 mps 745 mmHg 91%
    01:00 +8°C° 0.1 mm 5 mps 745 mmHg 90%
    02:00 +8°C° 0 mm 5 mps 746 mmHg 89%
    03:00 +7°C° 0 mm 4 mps 746 mmHg 89%
    04:00 +7°C° 0 mm 4 mps 747 mmHg 88%
    05:00 +8°C° 0 mm 4 mps 747 mmHg 84%
    06:00 +8°C° 0 mm 5 mps 748 mmHg 81%
    07:00 +9°C° 0 mm 5 mps 749 mmHg 77%
    08:00 +10°C° 0 mm 5 mps 749 mmHg 72%
    09:00 +12°C° 0 mm 5 mps 749 mmHg 67%
    10:00 +14°C° 0 mm 4 mps 750 mmHg 62%
    11:00 +15°C° 0 mm 4 mps 750 mmHg 59%
    12:00 +15°C° 0 mm 4 mps 750 mmHg 56%
    13:00 +17°C° 0 mm 4 mps 750 mmHg 53%
    14:00 +17°C° 0 mm 4 mps 751 mmHg 53%
    15:00 +17°C° 0 mm 4 mps 751 mmHg 54%
    16:00 +17°C° 0 mm 4 mps 751 mmHg 54%
    17:00 +16°C° 0 mm 3 mps 751 mmHg 60%
    18:00 +14°C° 0 mm 3 mps 751 mmHg 66%
    19:00 +14°C° 0 mm 2 mps 751 mmHg 72%
    20:00 +13°C° 0 mm 2 mps 752 mmHg 76%
    21:00 +10°C° 0 mm 2 mps 752 mmHg 80%
    22:00 +9°C° 0 mm 2 mps 753 mmHg 83%
    23:00 +8°C° 0 mm 2 mps 753 mmHg 80%

    30 May, Thursday

    Time Temperature Precipitation Wind Pressure Humidity
    00:00 +7°C° 0 mm 2 mps 753 mmHg 77%
    01:00 +7°C° 0 mm 2 mps 753 mmHg 74%
    02:00 +6°C° 0 mm 2 mps 753 mmHg 74%
    03:00 +6°C° 0 mm 2 mps 753 mmHg 73%
    04:00 +6°C° 0 mm 1 mps 753 mmHg 73%
    05:00 +8°C° 0 mm 1 mps 753 mmHg 68%
    06:00 +10°C° 0 mm 1 mps 753 mmHg 64%
    07:00 +11°C° 0 mm 1 mps 754 mmHg 60%
    08:00 +13°C° 0 mm 1 mps 754 mmHg 57%
    09:00 +15°C° 0 mm 1 mps 754 mmHg 54%
    10:00 +18°C° 0 mm 1 mps 753 mmHg 51%
    11:00 +19°C° 0 mm 1 mps 753 mmHg 49%
    12:00 +20°C° 0 mm 1 mps 753 mmHg 47%
    13:00 +21°C° 0 mm 1 mps 753 mmHg 45%
    14:00 +21°C° 0 mm 1 mps 753 mmHg 46%
    15:00 +21°C° 0 mm 1 mps 753 mmHg 46%
    16:00 +21°C° 0 mm 1 mps 752 mmHg 47%
    17:00 +20°C° 0 mm 1 mps 752 mmHg 53%
    18:00 +19°C° 0 mm 1 mps 753 mmHg 59%
    19:00 +17°C° 0 mm 2 mps 753 mmHg 66%
    20:00 +15°C° 0 mm 2 mps 753 mmHg 67%
    21:00 +14°C° 0 mm 2 mps 753 mmHg 69%
    22:00 +12°C° 0 mm 3 mps 753 mmHg 70%
    23:00 +11°C° 0 mm 3 mps 753 mmHg 71%

    31 May, Friday

    Time Temperature Precipitation Wind Pressure Humidity
    00:00 +11°C° 0 mm 3 mps 752 mmHg 72%
    01:00 +10°C° 0 mm 3 mps 752 mmHg 73%
    02:00 +10°C° 0 mm 2 mps 752 mmHg 74%
    03:00 +10°C° 0 mm 2 mps 752 mmHg 75%
    04:00 +10°C° 0 mm 2 mps 752 mmHg 76%
    05:00 +12°C° 0 mm 2 mps 751 mmHg 73%
    06:00 +13°C° 0 mm 3 mps 751 mmHg 71%
    07:00 +16°C° 0 mm 3 mps 751 mmHg 68%
    08:00 +18°C° 0 mm 3 mps 751 mmHg 65%
    09:00 +19°C° 0 mm 3 mps 751 mmHg 62%
    10:00 +21°C° 0 mm 3 mps 750 mmHg 59%
    11:00 +22°C° 0 mm 3 mps 750 mmHg 58%
    12:00 +22°C° 0 mm 3 mps 750 mmHg 58%
    13:00 +24°C° 0 mm 3 mps 749 mmHg 57%
    14:00 +24°C° 0.8 mm 3 mps 749 mmHg 61%
    15:00 +22°C° 0.8 mm 3 mps 749 mmHg 65%
    16:00 +22°C° 0.8 mm 3 mps 749 mmHg 70%
    17:00 +20°C° 1.3 mm 3 mps 749 mmHg 76%
    18:00 +19°C° 1.3 mm 4 mps 749 mmHg 83%
    19:00 +17°C° 1.3 mm 4 mps 749 mmHg 90%
    20:00 +17°C° 0.4 mm 4 mps 750 mmHg 91%
    21:00 +15°C° 0.4 mm 4 mps 750 mmHg 93%
    22:00 +14°C° 0.4 mm 5 mps 750 mmHg 95%
    23:00 +14°C° 0.2 mm 5 mps 751 mmHg 95%

    1 June, Saturday

    Time Temperature Precipitation Wind Pressure Humidity
    00:00 +13°C° 0.2 mm 5 mps 751 mmHg 95%
    01:00 +12°C° 0.2 mm 5 mps 751 mmHg 95%
    02:00 +11°C° 0.1 mm 6 mps 752 mmHg 94%
    03:00 +10°C° 0.1 mm 6 mps 752 mmHg 94%
    04:00 +10°C° 0.1 mm 6 mps 752 mmHg 93%
    05:00 +10°C° 0 mm 6 mps 753 mmHg 92%
    06:00 +9°C° 0 mm 6 mps 753 mmHg 91%
    07:00 +9°C° 0 mm 6 mps 754 mmHg 90%
    08:00 +10°C° 0 mm 6 mps 754 mmHg 82%
    09:00 +13°C° 0 mm 6 mps 755 mmHg 75%
    10:00 +14°C° 0 mm 6 mps 755 mmHg 68%
    11:00 +15°C° 0 mm 7 mps 755 mmHg 62%
    12:00 +16°C° 0 mm 7 mps 755 mmHg 56%
    13:00 +17°C° 0 mm 7 mps 755 mmHg 50%
    14:00 +16°C° 0 mm 7 mps 755 mmHg 50%
    15:00 +16°C° 0 mm 7 mps 755 mmHg 50%
    16:00 +16°C° 0 mm 7 mps 755 mmHg 50%
    17:00 +14°C° 0 mm 6 mps 756 mmHg 54%
    18:00 +13°C° 0 mm 5 mps 756 mmHg 58%
    19:00 +10°C° 0 mm 5 mps 756 mmHg 63%
    20:00 +9°C° 0 mm 5 mps 757 mmHg 64%
    21:00 +7°C° 0 mm 5 mps 757 mmHg 65%
    22:00 +6°C° 0 mm 4 mps 758 mmHg 66%
    23:00 +6°C° 0 mm 4 mps 757 mmHg 67%
    Show more